Temp
87 87 87 87 87 87 87 87 89 89 86 89 89 88 88 88 89 89 91 89 88 89 88 88 88 87 90 88 88 87 86 87 88 88 89 89 89 90 92 92 91 90
87 87 86 87 86 86 87 89 88 88 87 87 89 88 89 89 91 90 90 90 89 89 88 89 88 87 87 88 87 87 86 87 86 92 88 89 88 90 91 91 91 90
88 88 88 88 89 89 91 90 88 89 90 91 91 90 92 92 91 89 89 90 90 92 88 88 88 87 88 87 87 87 88 86 86 89 88 88 89 88 88 92 91 92
88 89 90 91 91 91 91 90 90 89 91 90 91 94 94 95 92 91 88 89 88 89 90 89 88 90 88 88 87 86 87 86 87 87 86 88 88 89 89 89 90 92
89 89 90 91 91 90 90 91 92 92 91 91 93 91 90 89 89 92 89 89 87 89 89 89 88 89 88 87 87 86 87 87 87 86 85 85 87 87 90 89 88 89
89 88 89 90 91 90 92 92 92 93 92 93 93 93 92 92 91 92 91 91 91 91 92 92 91 91 91 88 87 87 88 89 89 86 86 85 87 89 92 90 88 88
91 90 91 91 93 93 93 92 92 92 93 93 93 92 93 93 91 90 90 91 92 90 91 89 87 88 89 88 86 86 86 86 87 87 86 86 85 86 89 89 86 86
92 92 91 91 92 93 92 94 94 93 93 93 94 93 93 93 91 93 92 92 92 92 90 92 89 87 91 90 88 86 87 91 90 86 85 85 85 85 85 87 87 85
93 92 92 92 92 93 94 95 95 95 94 94 94 95 94 93 94 94 90 90 90 90 89 90 89 90 90 89 88 87 87 89 91 89 86 86 86 85 86 86 87 86
91 90 91 92 92 93 93 93 95 95 95 95 95 96 95 93 93 93 91 88 90 89 89 89 90 91 91 91 89 89 88 86 87 87 89 88 88 88 89 88 87 86
77 84 89 87 87 92 93 95 95 96 95 95 95 94 94 95 92 92 90 90 93 91 90 89 90 90 89 92 91 91 89 90 88 87 88 88 88 88 89 87 86 87
77 75 76 76 75 80 86 88 90 96 96 96 95 93 93 95 93 92 92 91 91 91 91 90 89 89 89 89 91 92 91 91 90 89 89 88 88 89 88 89 89 87
77 78 77 79 80 79 78 78 77 79 91 97 96 94 93 93 94 94 92 92 90 92 92 90 90 91 88 88 90 90 90 90 91 90 89 88 89 89 90 90 90 89
79 80 84 81 80 78 80 82 81 81 78 85 92 94 95 95 95 94 95 91 90 90 91 89 89 90 89 88 89 90 90 90 90 90 90 89 89 89 90 90 89 89
79 80 79 79 81 79 77 77 78 77 78 79 82 89 94 94 95 94 91 92 91 90 89 91 91 91 92 89 88 88 89 88 89 90 90 88 88 90 88 89 90 90
79 79 79 79 78 79 78 77 77 77 77 78 77 79 88 87 89 90 91 92 90 90 90 92 88 84 78 75 79 84 80 81 82 83 86 84 84 85 88 89 90 86
80 79 78 77 78 77 78 78 78 78 77 77 76 78 80 85 88 89 90 91 92 91 90 82 80 79 78 70 72 78 85 83 82 81 80 81 83 79 81 85 88 86
78 79 78 77 77 77 77 76 76 76 77 78 77 79 79 78 84 87 88 89 90 90 89 82 82 80 70 70 73 73 78 84 83 81 84 81 80 80 80 81 83 86
77 77 77 76 76 76 76 76 76 75 75 74 76 78 78 78 82 85 86 88 89 87 86 83 85 72 68 73 73 73 73 82 86 83 81 79 78 79 80 80 81 83
76 76 76 76 76 76 76 75 74 73 74 75 74 74 75 77 78 76 80 83 84 83 83 85 85 73 68 70 70 70 71 76 85 86 85 81 79 80 82 82 81 81
75 76 76 75 75 75 74 75 74 74 74 74 73 74 75 74 73 75 79 81 83 85 84 86 76 64 66 67 67 67 68 76 83 85 85 84 84 83 82 82 82 82
72 73 73 73 73 73 73 73 73 73 73 72 73 73 74 74 75 78 80 81 82 82 82 78 70 61 62 62 63 65 67 79 82 82 82 83 83 83 83 83 83 83
71 71 71 71 71 71 71 70 71 72 72 72 72 72 72 72 75 76 78 79 80 81 79 72 72 62 58 58 59 62 72 81 82 82 82 82 82 82 81 80 79 78
71 71 70 70 70 70 70 70 71 72 72 73 71 71 71 72 73 73 76 78 76 76 72 72 67 61 57 57 58 59 70 79 80 79 80 78 78 78 76 76 77 78
70 70 70 70 70 70 71 71 71 71 72 72 71 71 71 71 71 71 72 73 74 74 76 70 66 62 56 57 57 58 66 76 77 77 75 76 76 76 77 76 74 76
71 70 71 71 71 71 71 71 72 72 72 72 72 71 69 67 66 65 66 67 67 68 67 65 63 62 59 55 56 58 60 71 75 75 74 75 77 77 77 77 75 74
MSLP
1013.93 1014.09 1014.33 1014.45 1014.49 1014.45 1014.61 1014.89 1014.89 1015.01 1015.09 1015.01 1015.33 1015.37 1015.33 1015.13 1014.97 1015.09 1015.17 1015.29 1015.53 1015.77 1015.85 1015.97 1016.05 1016.21 1016.21 1016.25 1016.29 1016.45 1016.61 1016.65 1016.61 1016.53 1016.69 1016.81 1016.97 1016.93 1016.97 1016.81 1016.69 1016.77
1013.85 1013.93 1014.09 1014.21 1014.33 1014.29 1014.29 1014.33 1014.49 1014.61 1014.81 1014.73 1014.65 1014.77 1014.81 1014.81 1014.85 1014.89 1014.97 1015.13 1015.29 1015.49 1015.57 1015.77 1015.89 1016.05 1016.13 1016.17 1016.29 1016.57 1016.65 1016.65 1016.85 1016.37 1016.65 1016.77 1016.85 1016.85 1016.89 1016.77 1016.73 1016.57
1013.65 1013.85 1014.01 1014.25 1014.21 1014.25 1014.17 1014.05 1014.13 1014.25 1014.41 1014.45 1014.29 1014.29 1014.53 1014.49 1014.65 1014.77 1014.81 1014.93 1015.09 1015.17 1015.37 1015.53 1015.69 1015.81 1015.97 1016.05 1016.09 1016.37 1016.57 1016.69 1016.85 1016.49 1016.49 1016.69 1016.61 1016.81 1016.77 1016.57 1016.61 1016.49
1013.53 1013.49 1013.61 1013.73 1013.65 1013.85 1013.89 1013.93 1013.93 1014.05 1014.01 1014.29 1014.37 1014.09 1014.01 1014.05 1014.29 1014.61 1014.85 1014.89 1015.05 1015.09 1015.13 1015.33 1015.49 1015.53 1015.73 1015.85 1016.01 1016.25 1016.33 1016.37 1016.37 1016.37 1016.57 1016.49 1016.53 1016.57 1016.61 1016.49 1016.49 1016.45
1013.33 1013.41 1013.29 1013.29 1013.25 1013.29 1013.53 1013.73 1013.73 1013.81 1014.01 1013.89 1013.97 1013.97 1014.01 1014.05 1014.21 1014.37 1014.69 1014.89 1014.97 1015.09 1015.09 1015.17 1015.25 1015.41 1015.45 1015.69 1015.85 1016.25 1016.21 1016.29 1016.13 1016.21 1016.53 1016.73 1016.53 1016.57 1016.53 1016.45 1016.57 1016.69
1013.05 1013.09 1013.09 1013.13 1013.13 1013.17 1013.33 1013.45 1013.45 1013.49 1013.73 1013.77 1013.77 1013.69 1013.85 1013.93 1014.09 1014.17 1014.33 1014.69 1014.85 1014.97 1015.01 1014.97 1015.09 1015.21 1015.25 1015.45 1015.69 1015.89 1016.01 1016.09 1015.89 1015.97 1016.33 1016.61 1016.53 1016.21 1016.13 1016.09 1016.29 1016.49
1012.89 1013.01 1013.09 1013.01 1013.01 1012.93 1013.05 1013.09 1013.13 1013.21 1013.25 1013.33 1013.29 1013.53 1013.53 1013.81 1014.09 1014.17 1014.09 1014.21 1014.49 1014.73 1014.81 1014.81 1014.93 1015.05 1015.05 1015.17 1015.49 1015.77 1015.81 1015.85 1015.77 1015.77 1016.13 1016.33 1016.37 1016.45 1016.17 1016.17 1016.37 1016.49
1012.49 1012.61 1012.77 1012.89 1013.01 1012.85 1012.97 1012.85 1012.85 1012.97 1012.97 1012.97 1013.25 1013.21 1013.21 1013.45 1013.73 1013.85 1013.97 1014.05 1014.17 1014.33 1014.49 1014.53 1014.61 1014.81 1014.81 1014.93 1015.29 1015.57 1015.73 1015.57 1015.73 1015.85 1016.09 1016.29 1016.29 1016.53 1016.45 1016.33 1016.33 1016.53
1012.33 1012.45 1012.57 1012.73 1012.85 1012.81 1012.81 1012.69 1012.57 1012.61 1012.61 1012.93 1013.01 1013.01 1012.93 1013.17 1013.33 1013.45 1013.65 1013.89 1014.05 1014.09 1014.21 1014.33 1014.37 1014.53 1014.57 1014.77 1014.97 1015.17 1015.45 1015.45 1015.33 1015.45 1015.77 1016.09 1016.25 1016.37 1016.29 1016.13 1016.29 1016.37
1012.69 1012.69 1012.77 1012.73 1012.85 1012.61 1012.69 1012.61 1012.37 1012.33 1012.29 1012.57 1012.69 1012.65 1012.81 1012.85 1013.01 1013.13 1013.37 1013.65 1013.93 1014.05 1014.09 1014.13 1014.17 1014.25 1014.37 1014.53 1014.81 1014.97 1015.17 1015.37 1015.37 1015.41 1015.37 1015.49 1015.73 1015.81 1015.81 1015.89 1016.09 1016.25
1014.13 1013.89 1013.37 1013.37 1013.17 1012.77 1012.69 1012.41 1012.29 1012.25 1012.13 1012.33 1012.37 1012.65 1012.65 1012.57 1012.77 1012.85 1013.17 1013.41 1013.69 1013.85 1014.01 1014.09 1014.09 1014.13 1014.37 1014.37 1014.49 1014.61 1014.81 1014.93 1015.05 1015.17 1015.25 1015.29 1015.29 1015.37 1015.49 1015.65 1015.89 1016.09
1013.73 1015.09 1015.37 1014.73 1014.69 1014.29 1013.65 1013.45 1013.09 1012.37 1012.17 1012.13 1012.21 1012.53 1012.57 1012.49 1012.69 1013.01 1013.09 1013.29 1013.33 1013.45 1013.57 1013.81 1013.89 1014.01 1014.17 1014.33 1014.37 1014.41 1014.49 1014.61 1014.73 1014.89 1014.97 1015.05 1015.17 1015.21 1015.29 1015.25 1015.45 1015.57
1013.89 1014.17 1014.41 1014.05 1013.85 1014.13 1014.13 1014.09 1014.49 1014.61 1013.21 1012.13 1011.97 1012.29 1012.57 1012.69 1012.65 1012.61 1012.81 1013.09 1013.25 1013.29 1013.45 1013.61 1013.73 1013.81 1014.01 1014.17 1014.25 1014.29 1014.41 1014.45 1014.53 1014.65 1014.73 1014.89 1014.89 1014.97 1015.01 1014.97 1015.05 1015.13
1013.93 1013.97 1013.89 1013.89 1013.81 1013.77 1013.77 1013.97 1014.53 1015.01 1014.93 1013.69 1012.53 1012.13 1012.09 1012.25 1012.33 1012.61 1012.49 1012.81 1013.17 1013.37 1013.33 1013.41 1013.65 1013.77 1013.93 1014.05 1014.13 1014.21 1014.33 1014.45 1014.45 1014.49 1014.65 1014.77 1014.81 1014.81 1014.73 1014.77 1014.85 1014.93
1013.65 1013.61 1013.61 1013.49 1013.41 1013.61 1013.61 1013.61 1013.65 1013.89 1014.09 1014.49 1014.05 1013.05 1012.41 1012.17 1012.05 1012.49 1012.97 1013.01 1012.85 1013.05 1013.29 1013.41 1013.61 1013.77 1013.85 1014.05 1014.29 1014.21 1014.17 1014.61 1014.57 1014.45 1014.49 1014.69 1014.69 1014.73 1014.73 1014.61 1014.65 1014.69
1013.41 1013.49 1013.49 1013.57 1013.69 1013.73 1013.65 1013.37 1013.41 1013.61 1013.81 1014.49 1015.49 1015.01 1013.29 1012.85 1012.61 1012.61 1012.73 1012.97 1013.21 1013.21 1013.29 1013.37 1013.69 1014.09 1014.37 1014.61 1014.57 1014.37 1014.89 1015.13 1015.21 1015.25 1014.85 1014.89 1015.09 1015.09 1014.77 1014.53 1014.57 1015.25
1013.29 1013.45 1013.49 1013.65 1013.65 1013.73 1013.81 1013.81 1013.81 1013.85 1013.93 1013.93 1014.33 1014.49 1014.33 1013.57 1012.93 1012.93 1012.93 1012.89 1013.05 1013.21 1013.41 1013.81 1013.69 1013.85 1014.17 1014.53 1014.53 1014.41 1014.33 1014.65 1014.81 1015.13 1014.93 1014.85 1015.21 1015.73 1015.69 1015.05 1014.65 1014.81
1013.41 1013.45 1013.61 1013.73 1013.73 1013.85 1013.85 1013.85 1013.85 1014.05 1014.05 1013.89 1013.49 1013.65 1014.05 1014.73 1014.01 1013.45 1013.13 1013.13 1013.09 1013.17 1013.45 1013.89 1013.93 1013.93 1014.13 1014.21 1014.29 1014.25 1014.21 1014.29 1014.61 1015.25 1014.73 1014.89 1015.01 1015.17 1015.25 1015.09 1014.97 1014.77
1013.53 1013.61 1013.69 1013.81 1013.97 1013.97 1014.01 1013.93 1013.97 1014.09 1014.33 1014.33 1014.21 1013.89 1013.81 1014.01 1014.01 1013.77 1013.69 1013.29 1013.21 1013.49 1013.73 1013.85 1013.77 1013.85 1013.97 1014.01 1013.97 1014.01 1014.01 1014.05 1014.05 1014.41 1015.05 1015.09 1015.09 1015.13 1015.13 1015.09 1015.01 1014.97
1013.65 1013.61 1013.65 1013.73 1013.85 1013.93 1013.97 1014.13 1014.25 1014.49 1014.49 1014.33 1014.29 1014.37 1014.37 1014.09 1014.25 1014.93 1014.49 1014.01 1013.81 1013.89 1013.93 1013.81 1013.81 1013.97 1014.01 1013.93 1013.97 1014.01 1014.05 1014.05 1013.93 1013.97 1014.29 1014.65 1014.81 1014.81 1014.77 1014.85 1014.89 1014.97
1013.73 1013.61 1013.77 1013.89 1013.97 1014.01 1014.09 1014.13 1014.29 1014.41 1014.49 1014.45 1014.45 1014.57 1014.65 1014.61 1014.61 1014.81 1014.53 1014.09 1013.89 1013.69 1013.77 1013.77 1014.37 1014.49 1014.29 1014.21 1014.21 1014.33 1014.37 1014.29 1014.05 1013.93 1013.97 1014.13 1014.17 1014.25 1014.45 1014.57 1014.57 1014.65
1014.25 1014.21 1014.21 1014.17 1014.13 1014.13 1014.13 1014.25 1014.29 1014.37 1014.41 1014.37 1014.41 1014.37 1014.25 1014.17 1014.05 1013.81 1013.81 1013.81 1013.69 1013.77 1013.89 1014.49 1014.85 1014.85 1014.69 1014.53 1014.41 1014.41 1014.41 1014.21 1014.09 1014.21 1014.21 1014.17 1014.13 1014.09 1014.13 1014.21 1014.33 1014.53
1014.57 1014.61 1014.65 1014.65 1014.61 1014.61 1014.65 1014.61 1014.49 1014.45 1014.41 1014.21 1014.45 1014.49 1014.49 1014.45 1014.25 1013.93 1013.65 1013.65 1013.61 1013.69 1014.25 1015.01 1014.97 1015.25 1015.13 1014.85 1014.65 1014.41 1014.21 1014.09 1014.05 1014.17 1014.25 1014.33 1014.25 1014.13 1014.13 1014.33 1014.69 1015.13
1014.73 1014.81 1014.97 1014.97 1014.93 1014.89 1014.85 1014.73 1014.41 1014.29 1014.37 1014.21 1014.49 1014.65 1014.69 1014.53 1014.29 1014.09 1013.77 1013.57 1013.89 1014.29 1014.69 1014.85 1015.29 1015.69 1015.53 1015.29 1015.01 1014.81 1014.33 1014.21 1014.25 1014.41 1014.53 1014.61 1014.57 1014.45 1014.45 1014.57 1014.73 1014.97
1014.93 1014.93 1014.97 1014.97 1014.97 1014.85 1014.65 1014.61 1014.53 1014.45 1014.29 1014.21 1014.37 1014.45 1014.65 1014.61 1014.37 1014.21 1013.93 1013.89 1014.05 1014.17 1014.33 1014.97 1015.49 1015.73 1015.65 1015.49 1015.33 1015.09 1014.73 1014.37 1014.37 1014.53 1014.93 1014.85 1014.81 1014.77 1014.49 1014.53 1014.61 1014.73
1015.01 1015.01 1015.05 1015.13 1015.17 1015.05 1014.89 1014.81 1014.61 1014.45 1014.33 1014.21 1014.21 1014.37 1014.69 1014.93 1015.05 1015.05 1015.37 1015.05 1014.77 1014.93 1015.65 1015.89 1015.97 1016.09 1016.05 1015.81 1015.53 1015.25 1014.93 1014.65 1014.57 1014.81 1015.13 1015.01 1014.73 1014.73 1014.81 1014.65 1014.77 1014.93
Wind_Speed
7 6 7 6 5 6 6 7 8 7 5 6 7 6 6 5 4 5 5 6 7 5 4 3 3 3 4 3 2 2 2 3 3 3 1 2 2 5 6 5 4 2
8 7 6 7 5 5 5 6 6 6 6 5 5 6 6 4 7 4 3 5 8 7 5 6 5 4 4 4 5 4 3 3 3 4 3 3 3 5 5 5 5 3
9 9 9 10 9 10 10 7 6 6 6 7 6 4 8 6 6 5 4 3 5 8 7 5 6 5 5 4 3 3 5 3 3 5 3 2 2 2 3 5 5 6
9 9 10 11 10 10 9 7 6 6 6 7 7 7 6 8 6 8 5 6 3 4 6 7 6 7 6 5 4 4 4 4 4 4 3 2 2 3 4 3 4 5
12 11 10 10 8 7 8 8 10 8 8 6 8 6 5 2 6 7 7 6 4 5 4 5 7 6 5 5 5 5 5 5 5 4 4 3 3 4 5 4 4 4
10 8 8 8 7 7 9 10 9 9 9 9 7 7 6 6 4 5 8 9 9 8 8 8 7 7 7 6 6 6 6 7 6 7 6 5 5 5 6 5 4 4
12 11 12 10 11 11 10 9 9 8 9 9 6 7 7 8 7 6 5 8 9 8 9 7 6 6 6 5 6 6 5 4 5 2 5 5 4 5 6 4 3 4
12 12 11 10 12 12 12 11 11 9 8 7 10 7 7 8 8 10 8 6 7 8 8 7 6 7 8 6 6 6 7 7 7 5 3 4 4 3 3 5 5 4
9 10 10 12 13 12 12 12 11 11 9 10 10 9 9 8 8 10 7 7 7 5 6 7 5 8 7 5 5 6 6 7 7 6 6 6 7 6 6 5 6 5
8 7 9 11 13 12 13 12 11 10 9 11 11 10 11 9 9 8 7 6 8 7 6 5 5 4 5 7 6 5 5 6 6 6 5 6 6 6 6 4 4 4
13 11 8 9 10 10 11 11 11 11 9 10 10 10 10 9 7 7 6 7 9 8 7 6 6 5 5 6 6 7 7 7 7 6 6 5 5 4 5 4 3 6
3 5 10 7 11 14 12 11 11 11 11 10 10 8 6 8 7 7 8 7 7 6 7 7 6 5 5 6 7 7 7 8 7 6 7 6 5 6 5 5 5 3
6 10 8 5 3 3 1 4 9 19 16 11 9 9 11 11 11 8 6 5 4 7 7 6 6 7 6 5 7 7 7 6 8 7 7 6 7 7 7 7 7 6
3 2 3 2 3 3 1 2 1 5 13 16 10 8 10 10 9 10 8 6 4 5 5 3 4 5 4 5 6 7 7 7 6 6 7 7 7 7 7 6 5 7
1 2 1 2 3 2 2 2 2 2 5 12 18 11 7 6 5 6 7 7 7 6 5 5 6 7 6 4 4 7 5 6 8 8 7 7 6 5 6 7 6 5
1 2 2 1 2 2 2 3 1 1 1 3 7 15 6 1 1 1 2 1 3 4 6 6 1 4 4 9 9 1 3 3 6 8 6 6 4 2 2 3 2 3
2 3 4 4 2 1 2 1 1 1 2 4 4 8 11 10 2 2 2 3 5 5 4 3 3 3 3 6 6 4 4 5 3 4 2 1 3 3 6 3 3 0
3 3 3 5 5 5 3 2 0 1 2 2 4 6 3 7 10 5 3 4 4 6 1 4 2 4 7 6 2 3 4 1 4 5 2 3 1 1 2 4 4 5
4 3 4 4 4 5 4 3 2 1 0 1 4 5 7 8 8 8 5 5 5 3 3 6 4 5 9 8 8 6 6 5 3 5 1 1 2 3 3 4 5 4
4 4 4 3 4 3 4 4 4 4 4 3 4 5 6 6 6 10 10 6 4 2 0 2 4 4 3 4 4 4 2 2 3 3 5 5 4 4 4 5 5 5
5 3 3 4 4 4 4 4 3 2 2 3 3 4 4 3 4 7 8 7 5 3 2 2 5 7 1 1 2 3 1 3 3 3 3 3 3 5 6 6 4 5
8 8 7 6 6 5 6 5 5 4 2 3 3 4 3 4 6 7 6 6 5 3 3 6 4 8 6 6 5 3 2 3 4 3 4 4 3 3 4 3 3 3
6 7 7 7 6 5 5 5 5 5 3 1 1 2 4 5 7 6 5 6 6 5 1 4 3 8 9 8 7 5 1 1 3 3 3 4 4 2 2 4 5 6
8 7 7 7 7 7 7 5 5 4 4 4 3 3 4 5 5 9 8 6 6 3 4 4 6 8 10 11 11 11 5 1 1 2 2 2 3 3 3 2 4 8
7 7 7 7 7 7 7 8 7 5 4 3 4 4 5 7 8 6 8 6 7 2 10 8 6 7 11 11 12 13 8 2 3 2 1 1 1 1 2 2 1 3
6 7 8 7 8 8 8 8 7 7 6 5 6 6 9 9 9 14 12 8 11 13 12 9 7 7 10 13 14 14 13 6 5 5 4 5 4 3 2 2 5 4
Wind_Direction
184 186 188 200 193 198 181 188 195 196 199 188 189 193 219 175 213 185 193 173 179 195 187 206 187 211 218 208 235 222 297 304 295 302 229 256 271 275 273 289 291 249
190 187 183 197 195 195 200 195 195 200 192 214 202 177 192 200 181 225 195 182 171 190 189 186 196 207 219 212 185 211 219 231 244 249 238 222 229 257 278 274 268 276
201 188 195 197 198 198 205 203 198 202 190 209 229 184 183 202 193 183 220 225 186 197 184 190 194 191 208 228 212 195 217 216 238 257 267 246 246 277 295 286 281 279
205 207 200 202 202 196 206 209 205 188 209 191 213 224 211 192 192 175 198 206 225 219 185 191 206 202 197 210 204 211 228 209 222 234 263 274 272 271 263 267 284 286
203 210 211 205 209 198 196 212 211 191 212 207 197 216 228 252 174 190 178 193 210 217 231 195 188 213 191 196 201 206 223 224 214 210 220 244 240 234 250 259 277 289
202 210 214 215 214 210 203 208 214 206 202 217 207 202 211 212 233 210 187 193 200 214 218 214 206 204 213 197 201 209 217 226 222 195 200 213 234 240 254 248 232 233
200 205 211 217 219 214 216 208 205 215 208 210 209 210 203 199 203 230 229 193 198 202 219 212 200 205 199 206 194 200 217 249 277 236 188 207 217 245 261 285 313 301
204 197 207 213 220 216 215 216 211 204 218 207 211 208 211 207 196 208 222 235 217 204 206 222 199 195 206 212 199 193 208 224 228 241 198 204 230 239 241 254 255 256
218 206 205 213 216 220 219 219 215 213 206 218 218 216 206 217 213 211 201 210 229 229 207 212 210 191 202 218 219 199 204 223 236 216 204 215 220 218 230 236 243 250
213 227 229 219 221 221 221 222 227 220 210 214 219 221 216 204 217 221 206 201 209 222 231 236 219 220 204 204 220 230 210 211 227 255 250 216 221 234 239 234 247 261
342 309 259 247 242 233 239 238 227 226 222 218 222 222 233 223 199 217 220 199 213 211 216 227 228 217 227 221 216 220 224 225 225 222 239 254 246 234 238 243 253 253
149 307 323 352 336 323 318 324 300 249 223 220 224 233 241 247 196 207 225 223 216 221 215 214 222 228 222 224 231 234 221 223 224 226 229 227 242 247 251 262 256 274
179 174 191 225 202 189 269 312 314 313 286 237 218 211 221 223 230 216 190 232 224 233 235 227 214 222 226 227 228 236 245 238 231 223 220 218 223 226 240 238 241 235
225 231 188 202 232 203 173 78 10 328 327 319 297 245 224 234 235 233 218 172 207 241 235 250 255 239 231 238 240 240 249 254 250 252 231 219 210 223 233 240 241 256
253 284 299 247 223 181 158 169 150 87 331 328 321 321 284 274 223 263 258 236 185 175 194 221 233 243 252 277 252 248 264 281 271 248 244 243 240 240 230 228 223 222
268 283 284 316 349 10 348 342 39 78 163 251 299 299 306 286 350 288 314 214 205 214 218 226 49 24 27 342 312 357 84 258 292 303 307 351 354 339 325 336 315 347
329 326 328 319 328 337 2 8 343 9 185 199 224 283 323 324 303 281 279 284 270 257 218 113 181 148 332 331 302 128 153 194 210 336 333 330 5 8 280 307 308 71
314 310 314 317 317 326 343 331 124 291 323 298 277 271 242 269 292 287 268 257 270 270 185 154 198 164 164 204 224 87 107 163 130 216 180 111 106 311 325 301 307 258
317 295 296 306 322 323 327 332 337 344 109 326 288 302 332 324 308 296 282 270 258 265 160 156 172 170 197 215 228 208 170 177 204 133 70 174 205 196 264 273 256 278
296 305 314 332 330 332 338 334 337 353 349 327 311 316 307 293 317 307 298 297 298 287 288 187 150 143 182 201 211 203 167 228 218 230 185 166 195 208 229 246 255 263
359 8 3 6 3 8 10 351 330 327 343 348 298 288 267 269 263 258 261 277 291 280 223 189 63 26 18 52 359 26 54 283 263 241 221 201 211 203 205 225 236 241
24 40 42 40 35 37 39 38 30 23 317 267 292 289 292 258 251 250 266 265 256 265 253 67 47 26 37 55 62 41 354 258 242 231 238 242 233 243 232 225 252 273
42 46 49 45 43 36 34 28 20 12 12 4 345 316 294 295 275 277 267 257 244 226 90 85 76 13 13 26 32 23 270 233 273 276 267 259 256 269 9 3 338 329
44 50 53 52 43 44 41 33 29 22 36 30 42 6 327 297 276 270 271 268 276 229 91 142 75 28 20 20 19 5 341 3 315 287 280 359 356 6 357 350 5 10
44 50 52 45 39 29 25 29 27 26 21 37 55 44 29 14 358 319 264 259 261 187 203 128 90 50 36 37 31 22 8 349 11 40 48 291 275 280 204 162 106 353
46 54 50 42 42 38 29 22 15 20 16 24 40 45 46 40 28 42 18 42 43 42 40 38 51 45 39 36 38 32 23 17 16 26 23 4 349 347 332 135 117 122